Regional Weather Roundup
Issued by NWS Upton, NY

Current Version | Previous Version | Text Only | Print | Product List | Glossary On
Versions: 1 2 3 4 5 6 7 8 9 10 11 12 13 14 15 16 17 18 19 20 21 22 23 24 25 26 27 28
000
ASUS41 KOKX 270308
RWROKX

REGIONAL WEATHER ROUNDUP
NATIONAL WEATHER SERVICE NEW YORK NY
1100 PM EDT WED APR 26 2017

NOTE: "FAIR" INDICATES FEW OR NO CLOUDS BELOW 12,000 FEET WITH NO
SIGNIFICANT WEATHER AND/OR OBSTRUCTIONS TO VISIBILITY.

NYZ071-072-176-178-NJZ106-104-270400-
NEW YORK CITY METRO AREA

CITY           SKY/WX    TMP DP  RH WIND       PRES   REMARKS
Central Park   CLOUDY    59  58  96 CALM      29.87R
Wall St Helipt CLOUDY    57  55  94 CALM      29.86R
Bronx Bot Gard   N/A     59  57  94 E1        29.85S
LaGuardia APRT CLOUDY    58  55  90 CALM      29.84R
Kennedy INTL   CLOUDY    60  58  92 CALM      29.85R
Breezy Point     N/A     54 N/A N/A W3          N/A
Newark/Liberty CLOUDY    60  58  92 CALM      29.84S
Teterboro      CLOUDY    61  58  90 CALM      29.83R
$$

NYZ177-179-078>081-270400-
LONG ISLAND NEW YORK

CITY           SKY/WX    TMP DP  RH WIND       PRES   REMARKS
Jones Beach      N/A     52 N/A N/A S2          N/A
Matinecock PT  NOT AVBL
Farmingdale    CLOUDY    59  56  89 SE3       29.84R
MacArthur/ISP  CLOUDY    56  55  97 SE5       29.84R FOG
Shirley        FOG       52  52 100 SE8       29.85R VSB 1
Mt Sinai Harb    N/A    N/A N/A N/A NW1         N/A
Westhampton    FOG       53  51  93 SE3       29.86S VSB 3/4
East Hampton   FOG       54  53  99 S3        29.85R VSB 1/2
Montauk          N/A     53  53 100 CALM      29.85S
$$

NYZ052-065-067-270400-
HUDSON VALLEY

CITY           SKY/WX    TMP DP  RH WIND       PRES   REMARKS
White Plains   CLOUDY    58  56  93 SE3       29.83S
Larchmont Harb   N/A     52 N/A N/A NE1         N/A
Croton O-T Hud   N/A     57 N/A N/A MISG        N/A
Newburgh       CLOUDY    59  59 100 CALM      29.85S
Montgomery     CLOUDY    58  56  93 CALM      29.83S
Poughkeepsie   CLOUDY    58  56  93 CALM      29.83R
Albany         CLOUDY    62  54  74 S7        29.83R
$$

NJZ001-105-106-008-010-013-015-019>022-104-270400-
NEW JERSEY

CITY           SKY/WX    TMP DP  RH WIND       PRES   REMARKS
Newark/Liberty CLOUDY    60  58  92 CALM      29.84S
Teterboro      CLOUDY    61  58  90 CALM      29.83R
Caldwell       CLOUDY    59  57  93 CALM      29.84S
Somerville     CLOUDY    61  58  90 CALM      29.82S
Linden         CLOUDY    59  57  92 CALM      29.85S FOG
Sussex         CLOUDY    56  56 100 CALM      29.84S
Andover          N/A     57  56  96 CALM      29.84S
Trenton        CLOUDY    61  58  90 SE5       29.84R
Millville      CLOUDY    61  60  97 CALM      29.85R
Atlantic City  CLOUDY    57  54  89 SE6       29.85S
Wrightstown    CLOUDY    60  58  91 E5        29.82R
Toms River     CLOUDY    58  56  93 S3        29.86R
Belmar         CLOUDY    58  57  97 CALM      29.86S FOG
$$

PAZ047>061-062-071-270400-
EASTERN PENNSYLVANIA

CITY           SKY/WX    TMP DP  RH WIND       PRES   REMARKS
Philadelphia   CLOUDY    62  56  80 SE5       29.85R
Allentown      CLOUDY    64  56  75 SE3       29.83R
Scranton       CLEAR     63  56  78 E5        29.81R
$$

CTZ002-004>006-009-010-012-RIZ004-006-007-MAZ004-011-015-270400-
SOUTHERN NEW ENGLAND
 IN CT

CITY           SKY/WX    TMP DP  RH WIND       PRES   REMARKS
Bradley INTL   DRIZZLE   57  57 100 N7        29.85R FOG
Hartford       CLOUDY    58  58 100 N3        29.84S FOG
Danbury        CLOUDY    57  57 100 E5        29.85S
Wtrbury/Oxford CLOUDY    57  52  82 N3        29.86S VSB 1
Bridgeport     CLOUDY    57  53  86 CALM      29.84S
Meriden        CLOUDY    59  57  93 NW5       29.84S
New Haven      CLOUDY    55  53  93 CALM      29.83S
Chester        CLOUDY    59  59 100 CALM      29.84S FOG
Groton         CLOUDY    52  51  97 CALM      29.84R FOG
Wilimantic     CLOUDY    59  58  96 CALM      29.85S

 IN RI

CITY           SKY/WX    TMP DP  RH WIND       PRES   REMARKS
Providence     CLOUDY    57  57 100 SE5       29.85R FOG
Block Island   LGT RAIN  52  52 100 CALM      29.85R VSB 3/4
Westerly       CLOUDY    55  55 100 S3        29.84S FOG
 IN MA

CITY           SKY/WX    TMP DP  RH WIND       PRES   REMARKS
Boston         FOG       50  50 100 N5        29.85R VSB<1/4
Worcester      CLOUDY    53  52  96 N5        29.85S
Westfield      CLOUDY    57  57 100 N6        29.86R FOG
Provincetown   LGT RAIN  52  52 100 S7        29.83R VSB 3/4
Nantucket      FOG       51  50  96 SE12      29.84S VSB 1/4
$$

ANZ330-335-338-340-345-350-353-355-270400-
COASTAL MARINE OBSERVATIONS


STATION/POSITION TIME  SKY/WX   TEMP    WIND        PRES    VSBY  WAVE
                                AIR SEA DIR/SP/G                  HT/PER
                 (UTC)          (F)     (DEG/KT/KT) (MB)    (MI)  (FT/S)
NY HARB ENTRANCE 0150            51 49  200/  4/  4 1010.3          6/11
20 S FIRE ISLAND 0250            50 49   30/  4/  6 1010.1          7/11
GREAT SOUTH BAY  0230            53 57  120/  6/ 10   N/A
23 SSW MONTAUK P 0150            47 46              1010.5          8/10
15 E BARNEGAT LI 0230               50                N/A           7/12
HUDSON CANYON    0150            52 51  270/  4/  6 1010.1          8/11
KINGS POINT      0236            52 49     CALM     1010.4
EXECUTION ROCKS  NOT AVBL
CENTRAL LI SOUND NOT AVBL
EASTERN LI SOUND NOT AVBL
ROBBINS REEF     0236            60     180/  4/  5 1010.8
$$


>>>>>>>>>>>>>>>>>>>>>>>>>>>> KEY <<<<<<<<<<<<<<<<<<<<<<<<<<<
>                                                          <
>     SKY/WX - Sky Condition/Present Weather               <
>     TMP    - Temperature in Fahrenheit                   <
>     DP     - Dew Point in Fahrenheit                     <
>     RH     - Relative Humidity in Percent                <
>     WIND   - Direction (from) and Speed in MPH           <
>     PRES   - Mean Sea Level Pressure (inches of Hg)      <
>     WCI    - Wind Chill Index                            <
>     VSB    - VISIBILITY IN MILES                         <
>     HX     - HEAT INDEX                                  <
>     TC     - TEMPERATURE IN CELSIUS                      <
>     VRB    - VARIABLE WIND DIRECTION                     <
>                                                          <
>>>>>>>>>>>>>>>>>>>>>>>>>>>> KEY <<<<<<<<<<<<<<<<<<<<<<<<<<<




USA.gov is the U.S. government's official web portal to all federal, state and local government web resources and services.